Погода в Маме

Погода в Маме : погода сейчас, прогноз погоды и архив. Всё, что Вы хотите узнать о погоде в Маме!

Поиск расширенной информации на нашем сайте:

Другие новости

Новости СМИ2

Главная страница сайта

Новости сайта

03.07.2017

Напоминаем, что на нашем специализированном сайте Метеоцентр.Азия вы можете получить высокодетализированные автоматические прогнозы погоды по пунктам России, СНГ и мира в авиационном формате (включающие направление и скорость ветра, видимость, явления погоды, количество и форму облачности, нижнюю и верхнюю границу облачности).

Рекомендуем: Подбор авто.

Погода в Маме - сегодня

Время (UTC), дата Ветер
(°,м/с) 
Видим.   Явления Облачность Т
(°С)
Тd
(°С)
f(%) Тe
(°С)
Pmin
(гПа)
dP
(гПа)
Po
(мм)
O2
(г/м3)
Тmin Tmax R s Состояние
почвы
03 20.02.18 тихо ()   20000 м    10/0 средняя, верхняя 
[Ac lent|Cs]
-16.7 -19.3 80 -17  1023.4  -1  745  321           
06 20.02.18 тихо ()   4000 м    10/10 1000 м 
[Ns]
-13.7 -16.4 80 -14  1020.9  -2.1  743  317           
09 20.02.18 150 (ЮВ) 4000 м    10/0 средняя 
[As trans]
-13.5 -16.2 80 -16  1019.6  -1.1  743  316           
15 20.02.18 тихо ()   4000 м  слаб. снег  10/0 средняя 
[As op]
-16.7 -19.3 80 -17  1020.2  743  320           
18 20.02.18 тихо ()   10 км  слаб. снег  10/0 средняя 
[As trans]
-20.1 -22.7 80 -20  1020.9  0.3  743  325           
21 20.02.18 тихо ()   10 км  слаб. снег  10/0 верхняя 
[Cs]
-19.5 -21.4 85 -20  1021.1  0.4  743  324           
03 21.02.18 300 (СЗ) 4000 м  слаб. снег  10/0 средняя, верхняя 
[Ac trans|Cs]
-16.1 -19.5 75 -20  1022  0.6  744  320           
09 21.02.18 тихо ()   20000 м    10/4 1000 м верхняя 
[Sc|Cs]
-15.9 -21.9 60 -16  1021.8  0.2  744  320           
15 21.02.18 120 (ЮВ) 4000 м  слаб. снег  10/0 средняя 
[As op]
-18.9 -21.5 80 -19  1022.1  -0.2  744  324           
18 21.02.18 150 (ЮВ) 10 км  слаб. снег  10/0 верхняя 
[Cs]
-21.2 -23.7 80 -22  1022.2  -0.2  744  327           
21 21.02.18 тихо ()   10 км  слаб. снег  10/0 верхняя 
[Cs]
-26.3 -28.7 80 -26  1022.8  744  333           
03 22.02.18 тихо ()   10 км  слаб. снег  10/0 верхняя 
[Cs]
-22.2 -25.5 74 -22  1022.9  -0.1  744  328           
06 22.02.18 тихо ()   20000 м  {снег}  10/3 1500 м верхняя 
[Sc|Cs]
-14.9 -20.9 60 -15  1021.1  -1  743  318           
09 22.02.18 тихо ()   20000 м    10/0 верхняя 
[Cs]
-15.1 -20.2 65 -15  1021.2  0.1  744  319           
15 22.02.18 тихо ()   10 км  слаб. снег  10/0 верхняя 
[Cs]
-20 -22.6 80 -20  1024.2  745  326           
18 22.02.18 тихо ()   10 км  слаб. снег  10/0 верхняя 
[Cs]
-19.7 -22.3 80 -20  1024.9  0.7  746  326           
21 22.02.18 120 (ЮВ) 10 км  слаб. снег  10/0 верхняя 
[Cs]
-19.7 -22.3 80 -20  1025.9  747  326           
03 23.02.18 120 (ЮВ) 4000 м  слаб. снег  10/0 средняя 
[As trans]
-18.3 -20.9 80 -19  1027.6  0.9  748  325           
06 23.02.18 тихо ()   10 км  слаб. снег  10/0 средняя, верхняя 
[Ac lent|Cs]
-13.9 -17.4 75 -14  1026.6  -0.5  748  319           
09 23.02.18 160 (Ю) 20000 м  {снег}  10/3 1500 м верхняя 
[Cu med, cong|Ci fib]
-14.2 -18.5 70 -18  1026.7  0.1  748  319           
15 23.02.18 120 (ЮВ) 20000 м    5/0 верхняя 
[Ci fib]
-22.2 -24.1 85 -23  1029.4  0.6  749  330           
18 23.02.18 тихо ()   20000 м    3/0 верхняя 
[Ci fib]
-27.2 -29.6 80 -27  1030.4  0.4  749  337           
21 23.02.18 тихо ()   20000 м    ясно 
-30 -32.4 80 -30  1031.2  0.4  749  341           
03 24.02.18 110 (В) 20000 м    3/0 верхняя 
[Ci fib]
-23.5 -26.8 74 -27  1030.8  -0.1  750  332           
06 24.02.18 160 (Ю) 20000 м    3/0 верхняя 
[Ci fib]
-16.5 -22.5 60 -19  1028  -1.9  748  323           
Время (UTC), дата Ветер
(°,м/с) 
Видим.   Явления Облачность Т
(°С)
Тd
(°С)
f(%) Тe
(°С)
Pmin
(гПа)
dP
(гПа)
Po
(мм)
O2
(г/м3)
Тmin Tmax R s Состояние
почвы

Для получения пояснительной информации подведите курсор к названию столбца.

ПОГОДА в Маме - архив

Всё, что Вы хотите узнать о погоде в Маме - удобно и подробно!

Выберите нужную дату (начиная с 1 января 2015* года) и нажмите кнопку "Найти".
Будут отображены архивные сводки погоды по пункту Мама, начиная с указанной даты.


Отображать данные в формате CSV (для использования в таблицах Excel)


Внимание! Наш архив погоды предназначен исключительно для личного некоммерческого использования в познавательных целях. Если Вам необходимы официальные справки о состоянии погоды (для производственных, юридических, коммерческих и т.п. целей), обращайтесь в органы Росгидромета.

*Примечание: данная дата относится к архиву по метеостанциям СССР (Россия, СНГ, Балтия).
Архив по метеостанциям Зарубежной Европы и Азии (кроме Китая) хранится 10 дней, по другим регионам земного шара (Китай, Африка, Америка, Австралия, Океания) - 1 день.

Мама - район местоположения метеостанции


Название, широта, долгота, высота метеостанции:
Мама 58.3°ш. 112.9°д. 224 м над ур. моря [Российская Федерация]

Дополнительная информация

В oтличие oт бoльшинства пoгoдных сайтoв мы публикуем пoдрoбную метеoинфoрмацию в детальнoм прoфессиoнальнoм фoрмате.

Характеристики температуры и влажнoсти вoздуха измеряются на высoте 2 м в тени вдали oт зданий и деревьев.
Скoрoсть ветра измеряется на высoте 10 м (на урoвне рoста челoвека скoрoсть ветра ниже в 1.5-2 раза). Если метеoстанция нахoдится в гoрoде или в лесу, тo скoрoсть ветра занижена на 2-4 м/с пo сравнению с oткрытым местoм. Скoрoсть ветра над акватoриями крупных рек и oзёр, а также на вершинах хoлмoв на 2-5 м/с выше, чем в oбычных услoвиях.
Атмoсфернoе давление в разных тoчках местнoсти мoжет значительнo oтличаться oт давления на метеoстанции, в зависимoсти oт услoвий рельефа (при пoдъёме на 10 м давление пoнижается примернo на 1 мм рт.ст.).